Location: Hamayl? Da??
(36.7028°N, 30.1716°E)
Time: 12:51:19
(UTC+00:00)

Gbstr 26 Del rocket - Pass Details

Date: 04 August 2024
Orbit: 490 x 1235 km, 51.8° (Epoch: 11 September)

Event Time Altitude Azimuth Distance (km) Brightness Sun altitude
Rises 17:35:01 0° 308° (NW) 2,721 8.5 -6.8°
Reaches altitude 10° 17:37:05 10° 306° (NW) 1,894 7.3 -7.1°
Maximum altitude 17:41:20 67° 224° (SW) 707 3.4 -7.9°
Drops below altitude 10° 17:46:31 10° 142° (SE) 2,291 5.4 -8.8°
Enters shadow 17:46:49 - 141° (SE) 2,412 5.5 -8.9°
